Wind_Speed
5 2 2 5 6 6 6 5 7 7 5 4 4 3 4 4 5 5 9 10 7 10 8 10 10 8 5 6 9 3 11 16 16 21 23 24 26 27 26 25 23 23 22 20 19 20 19 15 14 14 16 17 17 14 12 9 6 7 12 14 16 17 16 18 23 23 23 23 20 19 19 19 19 18 17 18 18 18 19 21 21 21 21 20 20 21
5 5 6 8 8 8 7 7 6 5 5 5 4 5 6 5 5 7 9 8 5 7 4 7 7 7 7 6 7 1 9 10 15 18 19 22 23 24 26 24 23 22 20 19 19 21 20 17 16 18 19 20 18 16 13 9 6 11 14 13 14 15 15 18 21 21 23 22 19 18 18 18 17 17 17 17 17 19 20 21 21 21 20 20 21 21
3 5 9 10 8 7 6 6 6 5 4 4 4 4 6 4 4 7 7 5 3 4 3 6 6 6 8 6 5 3 6 9 21 26 25 26 24 24 28 26 25 23 20 20 21 22 22 20 20 22 23 21 18 15 13 9 8 14 14 13 14 13 14 17 19 21 20 19 18 17 18 18 16 17 18 17 17 19 20 21 21 20 20 21 20 21
3 6 11 11 7 6 7 7 5 4 4 3 3 3 6 4 1 4 6 8 7 1 4 6 5 4 5 6 6 3 2 3 17 30 32 32 31 31 31 28 27 26 25 25 25 25 23 22 23 25 25 23 19 16 14 10 12 15 14 14 15 15 16 18 19 19 18 20 22 21 20 21 20 19 20 19 18 19 21 20 20 20 20 21 20 20
6 9 9 8 6 8 7 7 5 4 4 5 5 5 6 6 4 5 3 7 8 5 2 5 3 4 5 5 7 6 5 7 4 20 25 27 31 32 31 30 29 28 28 27 25 24 22 23 24 24 24 22 18 15 12 10 13 14 14 15 15 16 18 18 18 19 19 22 24 23 22 22 21 20 20 21 20 21 21 20 21 21 20 20 20 19
10 11 7 6 6 8 7 7 7 6 4 5 5 9 10 8 7 5 2 5 6 6 2 5 4 5 6 5 7 6 7 9 6 6 13 20 22 20 22 29 29 23 21 21 20 21 21 22 22 22 21 19 16 13 8 10 15 14 14 15 15 17 18 18 19 20 21 23 24 24 23 22 22 21 22 23 23 23 21 20 20 20 19 19 19 19
6 7 8 8 8 9 8 8 7 8 5 4 6 10 9 5 4 4 3 5 2 3 3 3 5 3 5 5 7 4 9 10 10 8 2 11 18 19 19 22 19 12 11 15 17 18 20 21 21 21 20 18 15 10 7 13 16 15 14 16 16 17 18 19 21 22 22 23 24 24 24 23 23 23 23 22 22 22 20 19 20 19 19 18 18 19
4 7 8 9 9 8 7 7 7 9 7 4 7 7 5 1 4 4 3 4 2 3 4 4 5 2 3 5 5 6 11 11 10 10 9 9 3 9 14 11 8 7 9 13 15 17 19 20 22 23 21 19 14 10 9 13 15 15 14 15 16 17 18 19 22 22 23 23 24 24 24 23 23 23 22 20 20 21 20 19 20 20 19 18 18 18
4 7 9 9 8 6 6 9 9 10 6 6 7 6 4 2 3 3 1 3 1 1 3 6 1 3 3 6 6 7 10 9 9 9 11 18 21 16 13 12 11 9 8 11 14 14 15 18 20 20 19 17 13 11 10 11 14 16 17 17 17 17 18 19 21 21 21 22 23 22 23 23 23 22 21 19 19 20 20 19 20 20 20 19 18 17
4 9 11 9 7 6 9 11 9 10 6 7 6 5 1 0 1 2 1 4 3 4 2 7 1 3 2 6 7 5 6 5 6 7 10 16 22 24 24 23 19 15 13 13 12 11 10 12 14 16 15 14 13 13 11 11 13 16 18 21 21 20 19 19 20 20 19 20 21 21 22 22 22 21 20 19 20 20 20 21 20 21 20 19 19 17
7 10 8 5 7 9 11 10 9 12 7 4 4 3 2 4 4 4 2 4 4 2 4 7 2 5 1 4 6 4 3 1 2 5 8 15 21 23 24 25 22 19 18 16 14 12 11 11 12 13 14 14 15 15 14 15 15 15 16 20 23 23 21 22 22 21 20 19 19 19 21 22 22 21 20 20 21 21 22 23 22 21 20 19 19 17
6 6 4 5 10 10 8 6 7 9 7 6 4 2 0 4 4 4 4 4 3 2 6 7 3 7 4 2 5 4 4 4 5 6 7 12 17 20 22 23 21 19 17 15 13 11 11 11 12 12 12 13 13 14 15 17 18 16 13 17 22 23 22 24 24 23 22 20 19 18 19 22 22 22 21 21 21 21 23 24 23 22 21 21 21 19
4 5 4 6 10 7 7 2 1 2 5 6 5 5 3 2 2 2 3 1 1 4 6 5 2 5 3 1 4 4 8 9 9 9 9 11 14 17 19 20 18 16 14 12 9 7 5 6 7 7 7 8 9 10 13 16 18 18 14 15 19 22 24 26 26 25 23 21 19 18 19 20 22 23 22 21 21 21 22 23 23 23 23 22 22 20
4 6 4 3 6 4 7 5 2 1 3 5 4 5 4 2 2 1 3 1 1 4 6 3 3 2 2 2 5 5 10 12 13 14 14 15 16 16 17 17 17 14 12 10 7 5 4 4 4 4 5 6 8 10 14 18 19 20 19 19 21 22 25 28 29 28 25 22 20 18 18 18 20 23 23 21 20 21 23 24 22 23 23 23 22 20
2 5 4 3 4 3 5 6 7 5 4 4 4 6 5 4 4 3 2 2 2 3 5 2 2 2 3 3 1 5 11 13 15 16 16 17 17 17 18 18 17 14 11 9 8 6 4 4 4 5 6 7 11 13 16 18 19 19 20 23 25 25 26 29 31 31 27 23 20 18 18 18 19 21 22 21 21 21 23 23 21 22 23 23 22 20
4 5 6 6 6 5 5 5 7 7 3 3 3 6 3 5 5 3 3 4 4 1 3 1 1 0 4 5 3 7 10 12 15 16 17 16 15 19 20 18 17 17 14 11 9 7 4 2 2 3 6 9 12 14 17 17 14 14 16 22 26 25 25 28 29 29 27 23 19 18 19 18 18 19 20 21 21 21 23 22 21 22 24 23 21 20
3 5 7 4 4 5 8 8 6 7 5 1 2 3 3 5 7 4 2 0 4 2 3 1 3 0 2 4 4 7 9 9 11 13 17 16 16 20 20 17 18 18 17 15 11 8 6 3 2 2 2 7 10 12 15 13 10 11 12 17 22 21 21 22 23 24 23 21 18 18 18 17 17 18 19 20 21 20 21 21 21 22 23 22 21 21
4 4 6 3 5 7 11 12 5 5 8 4 2 4 2 3 5 3 1 2 3 2 4 0 4 3 3 2 2 7 10 8 9 10 13 15 16 19 20 20 19 19 20 19 15 13 11 8 4 2 1 3 8 11 12 11 11 13 12 15 20 20 18 19 18 17 16 16 17 17 17 17 17 19 20 19 19 19 19 20 22 22 22 22 22 21
3 2 7 4 4 5 7 8 2 1 3 5 5 4 3 3 0 1 2 2 2 3 3 2 2 1 2 2 1 5 8 8 9 10 11 13 16 18 20 21 20 20 20 20 18 18 16 14 10 6 4 3 4 8 10 12 13 13 11 14 17 16 15 18 16 13 13 14 15 15 16 18 18 20 20 19 19 18 18 21 23 23 23 23 23 21
3 2 4 5 2 1 3 3 3 3 3 2 2 1 2 3 3 2 3 4 4 4 3 2 2 1 2 3 2 4 6 8 9 9 10 13 16 18 18 19 20 20 20 18 18 19 19 18 16 13 11 7 5 6 8 10 11 11 10 13 15 13 13 16 16 13 13 14 14 14 15 17 19 20 20 18 19 19 20 22 23 22 23 23 22 20
2 2 3 5 6 3 1 1 6 6 3 2 2 1 1 1 1 2 2 3 5 4 3 3 1 3 4 2 2 4 5 7 9 9 9 12 16 17 16 17 18 18 18 18 16 17 18 18 16 15 13 9 6 5 7 9 10 10 9 11 15 16 15 15 15 15 15 13 12 13 13 15 19 21 20 18 19 20 22 24 23 23 25 23 21 21
2 3 3 4 4 1 3 2 4 7 7 5 3 3 4 3 3 3 2 2 2 4 4 5 3 4 4 1 4 4 5 7 9 10 11 13 16 15 14 15 16 16 16 17 15 13 15 16 16 14 12 9 6 6 9 11 12 12 10 9 12 15 15 15 15 17 17 14 11 12 14 16 18 22 21 20 20 22 24 25 23 24 25 22 20 22
3 3 3 4 3 4 3 6 9 3 5 7 3 0 1 2 3 5 4 4 1 3 2 4 3 3 3 2 5 6 8 9 10 12 13 14 16 15 13 12 13 13 12 13 13 11 11 11 12 12 10 9 8 8 10 12 13 14 12 10 9 11 11 11 13 15 16 15 13 14 16 17 18 21 22 21 23 25 26 25 23 25 24 20 20 22
2 3 2 3 4 3 1 8 13 11 8 6 3 3 2 0 2 5 5 3 3 2 1 4 3 3 2 5 8 10 11 11 11 12 14 15 15 14 12 11 11 10 8 8 10 10 10 8 8 9 9 10 10 10 12 13 13 13 13 11 10 9 9 9 10 12 15 15 15 15 17 19 20 20 21 23 25 27 27 24 23 26 23 20 21 22
1 1 2 1 2 4 3 2 6 8 6 3 3 4 3 2 3 3 1 3 4 1 3 5 2 3 2 7 9 10 11 11 12 14 14 14 14 13 12 10 10 10 9 8 8 9 10 10 9 10 10 11 11 11 12 13 14 13 13 13 12 12 12 12 12 14 17 18 18 18 18 21 22 22 23 25 26 28 27 24 25 27 23 20 22 21
2 2 3 4 4 3 3 3 1 2 3 2 3 6 6 5 5 3 2 4 3 2 3 5 3 3 6 8 9 9 10 10 11 14 14 14 14 12 11 10 11 12 12 10 10 10 11 11 11 12 12 11 11 12 13 13 13 13 13 13 13 13 13 13 14 16 19 20 20 19 20 22 23 25 27 27 26 28 26 24 27 28 23 21 22 21
4 4 2 5 6 5 4 3 3 3 4 3 3 7 7 6 5 5 4 2 3 3 3 3 7 9 8 8 8 8 8 8 9 11 13 13 13 12 11 11 11 14 14 12 11 11 11 12 13 14 13 12 12 13 15 15 14 13 12 12 12 12 11 11 12 16 20 22 21 20 19 22 25 27 28 27 27 27 25 26 29 27 22 22 23 21
5 4 4 4 5 5 6 5 4 6 7 4 3 6 8 7 7 7 4 0 4 5 2 4 10 10 7 7 8 7 8 8 8 11 12 12 12 11 11 11 12 14 14 13 13 14 13 14 15 15 14 13 13 14 15 15 15 15 13 11 11 11 9 9 10 15 20 23 22 20 20 23 27 29 29 28 28 27 27 28 27 24 22 24 24 21
6 2 4 3 7 7 8 9 9 10 8 7 8 7 7 9 9 7 3 2 2 3 4 8 11 9 7 8 8 7 8 9 8 10 10 10 10 10 10 12 13 14 13 13 15 15 14 14 14 14 14 14 14 14 14 14 15 16 16 15 14 12 10 9 11 14 18 21 21 20 22 26 29 30 29 29 29 27 28 27 24 23 24 24 23 23
4 2 3 3 7 8 7 7 9 10 9 9 10 7 6 8 9 7 4 5 5 4 7 12 13 9 7 7 8 9 11 11 10 10 10 9 9 9 10 13 15 14 13 13 14 13 12 12 12 12 13 14 14 14 14 14 15 16 16 16 16 14 10 7 9 14 16 19 21 21 24 29 30 30 29 29 28 27 26 26 25 26 26 24 24 24
3 1 2 3 7 5 6 7 8 10 11 10 10 9 8 7 8 7 5 4 6 7 10 13 12 8 5 8 11 12 12 12 11 10 9 8 9 9 11 14 15 13 12 12 11 11 11 11 11 11 12 12 13 13 13 13 13 14 13 14 15 11 8 7 8 12 14 18 21 22 27 31 32 31 29 29 28 27 26 27 28 28 26 25 26 25
3 3 1 3 5 2 3 5 4 8 12 11 10 10 10 7 6 6 5 4 3 7 10 10 7 5 5 8 13 13 12 12 10 8 8 9 9 10 12 13 13 12 12 11 10 10 11 11 11 11 11 11 12 12 12 13 13 14 12 12 13 9 6 6 7 9 12 16 19 22 27 31 31 29 28 29 30 30 29 29 28 27 27 26 26 25
3 4 2 2 4 1 2 0 2 2 6 5 4 6 7 4 5 5 6 7 5 4 6 5 4 6 7 9 10 10 11 11 9 8 8 9 10 10 11 12 12 11 11 11 10 10 11 11 10 9 10 11 11 11 12 13 14 14 12 10 10 8 6 5 4 7 10 13 17 21 25 27 28 30 31 31 31 30 30 29 28 27 27 25 25 24
3 5 3 3 3 3 4 1 3 2 2 1 2 4 4 4 8 8 7 8 7 6 6 6 7 9 9 9 10 10 11 11 11 11 10 8 8 8 9 11 11 11 10 10 10 11 11 10 9 8 8 9 9 9 9 9 10 11 10 9 8 6 5 2 4 8 10 13 17 21 24 26 29 32 30 29 28 26 26 28 28 27 26 25 25 24
4 4 3 2 3 3 4 3 3 1 2 2 1 3 4 7 12 12 10 8 9 10 10 10 9 10 12 14 15 16 17 16 15 13 11 8 7 7 8 10 11 11 10 9 10 11 11 10 8 7 8 9 9 8 8 8 9 10 9 7 7 5 3 2 6 9 11 12 14 19 23 26 29 28 25 27 28 25 24 26 26 26 26 26 26 25
5 4 3 2 2 3 3 2 2 2 1 1 2 3 3 4 6 8 8 8 6 7 9 9 9 12 15 17 18 21 21 20 18 16 11 8 8 8 9 10 11 12 10 9 9 10 11 11 10 9 9 9 9 9 9 9 9 9 7 6 7 8 7 7 8 9 10 10 12 17 22 27 29 26 25 28 31 28 27 27 27 27 28 27 26 26
4 3 3 2 2 3 3 2 3 4 1 0 1 2 3 3 3 2 4 4 4 4 8 9 9 12 15 18 21 23 20 17 15 12 9 8 9 9 9 9 10 10 10 9 8 9 10 10 10 10 9 8 8 9 10 10 8 7 6 5 7 8 9 10 11 11 10 8 10 15 21 24 26 26 27 30 31 30 30 30 28 28 29 29 28 28
5 3 3 3 1 2 4 3 3 3 2 2 1 2 5 6 6 4 2 3 3 3 9 10 9 11 14 16 19 16 11 8 6 5 6 8 9 9 9 8 8 8 9 9 8 7 8 8 10 9 8 8 9 9 10 9 7 7 8 9 11 10 10 13 14 12 12 11 9 12 18 22 24 27 30 33 33 33 33 32 31 30 29 28 27 27
7 4 4 4 3 2 4 3 2 2 2 1 1 4 8 10 9 4 2 2 1 4 9 10 9 11 13 14 14 10 3 2 2 3 5 8 9 10 10 9 9 8 8 8 8 8 8 8 9 8 7 9 11 10 10 9 7 8 12 14 13 13 14 16 16 14 14 14 12 11 14 20 25 30 33 34 35 36 34 31 30 29 27 26 25 24
6 4 3 4 3 3 3 3 2 1 1 1 2 6 10 12 8 1 2 1 2 6 10 10 9 10 12 12 9 4 1 3 6 6 8 9 10 11 11 11 11 11 10 9 9 9 8 8 8 8 9 11 12 11 10 8 7 10 15 15 14 15 18 18 17 17 15 13 13 12 11 13 19 25 30 31 31 30 26 21 19 18 19 21 22 22
4 3 2 3 4 3 3 3 1 0 1 1 5 9 10 8 2 2 2 2 8 12 13 13 11 10 11 11 10 9 9 12 14 12 11 11 12 12 12 12 12 12 12 12 11 11 10 10 10 10 12 13 13 12 11 8 8 12 15 15 16 18 18 16 16 17 17 15 14 13 10 9 11 16 21 23 21 19 16 13 12 13 15 17 19 19
2 2 2 2 2 2 3 3 2 1 1 3 7 7 5 2 2 2 4 9 15 16 15 15 15 14 15 16 19 20 20 19 18 15 13 13 12 13 12 12 12 12 13 13 13 13 13 14 14 14 14 13 12 13 13 11 12 15 16 17 19 18 15 14 15 16 16 17 17 16 15 14 12 11 13 15 15 15 15 15 16 17 18 18 17 17
0 1 2 2 1 2 3 2 2 2 1 7 7 3 3 2 4 10 14 16 18 19 18 17 17 19 22 23 24 23 22 20 18 17 16 14 13 13 13 12 12 12 12 12 12 13 13 14 15 15 15 14 13 13 13 13 14 17 18 19 18 15 12 13 14 15 16 18 18 19 19 18 17 15 14 14 15 16 17 17 17 18 18 17 16 16
1 1 2 1 1 1 2 2 1 1 3 7 5 3 4 6 12 19 20 17 16 18 19 18 18 20 24 26 25 23 22 21 20 18 17 16 15 14 14 14 14 13 13 13 13 13 13 13 13 13 13 13 13 13 14 14 15 16 18 19 17 13 11 12 12 14 16 17 18 18 18 18 19 19 18 17 17 18 18 18 18 18 17 16 16 16
1 3 5 3 2 3 4 3 2 3 5 9 12 14 14 14 16 19 21 20 18 17 19 20 20 21 22 24 23 22 21 20 19 18 18 18 17 16 16 16 16 15 15 16 16 15 15 14 14 13 13 12 12 12 12 13 13 15 18 18 15 14 13 12 12 14 16 17 16 15 14 15 17 18 19 19 19 20 21 20 20 20 19 18 16 16
3 5 6 5 4 7 9 8 6 7 11 16 19 20 19 18 18 18 20 20 18 17 18 20 21 20 20 20 20 20 19 17 16 16 16 17 16 17 17 17 17 17 17 17 17 17 16 16 16 17 17 16 15 14 13 12 12 13 15 14 13 13 13 12 13 14 16 17 17 15 12 12 13 14 14 15 15 16 18 18 18 17 16 15 14 14
2 5 6 3 3 4 5 5 6 10 14 18 20 21 21 20 19 19 19 19 19 18 19 19 20 20 20 20 21 22 20 18 17 16 16 16 16 15 16 16 16 16 17 18 18 18 18 19 19 20 21 21 20 19 18 16 15 14 12 10 10 10 10 11 13 14 15 16 16 15 13 12 11 10 10 11 11 11 12 12 12 11 12 12 12 12
3 6 7 4 3 4 6 7 11 16 18 18 19 20 22 23 22 22 22 22 21 21 21 21 21 22 22 21 22 22 20 18 18 17 16 16 15 15 14 14 14 14 15 16 17 17 16 17 18 19 20 21 22 22 21 19 19 17 15 13 10 8 6 7 9 12 15 16 17 17 15 13 11 9 8 8 8 8 10 10 10 9 10 11 11 10
6 6 4 5 7 8 8 10 14 17 16 16 18 20 22 25 26 24 23 23 23 22 21 21 20 19 19 18 17 18 18 16 16 16 16 16 16 15 15 14 13 13 13 14 15 14 13 13 13 13 14 16 18 20 21 20 19 18 17 17 15 12 10 8 7 8 11 13 15 16 16 15 13 11 9 7 6 5 6 7 8 8 9 11 11 10
9 6 4 6 7 5 5 7 9 9 9 11 17 21 22 24 25 23 21 21 20 19 19 19 18 16 15 15 14 13 14 13 12 13 14 14 14 14 15 15 15 14 13 13 13 12 11 11 11 11 12 12 13 15 18 19 19 17 16 15 15 15 15 15 13 12 11 11 12 13 15 15 15 14 12 9 7 5 3 3 5 6 6 8 9 9
7 5 4 5 6 7 10 13 13 14 14 15 18 21 21 22 22 22 21 20 19 18 18 19 19 18 17 15 13 12 12 12 11 11 11 10 10 10 11 13 14 15 14 13 13 12 11 11 11 10 11 12 13 13 14 16 18 16 14 12 12 12 13 14 14 14 13 11 11 11 11 12 13 13 12 11 10 8 6 4 3 5 5 5 6 6
Wind_Direction
173 180 217 208 209 211 220 190 200 236 245 272 297 301 286 277 277 259 270 273 187 164 193 197 206 232 256 264 278 348 129 153 157 166 178 185 189 193 194 193 194 200 203 192 183 185 189 195 197 189 184 179 172 170 168 161 171 204 206 207 211 212 208 202 200 193 185 187 191 196 205 209 213 218 219 218 217 219 218 213 211 212 213 215 216 217
160 193 232 220 210 206 217 212 214 254 268 271 281 292 293 278 277 275 277 276 171 139 204 206 198 247 260 250 258 160 123 151 169 174 184 187 189 192 193 194 198 203 200 189 186 186 188 194 195 190 185 179 173 170 166 155 176 209 203 197 204 200 191 195 198 193 188 192 194 194 200 206 212 217 220 222 221 218 214 210 209 209 213 217 218 218
165 220 238 223 208 200 225 230 215 243 261 270 274 284 285 267 284 292 297 326 54 106 202 196 182 243 269 265 257 187 147 169 179 183 188 188 187 192 195 196 201 202 196 191 189 187 189 192 190 186 183 179 179 173 161 161 205 214 196 183 193 189 180 186 191 194 195 192 186 185 194 202 209 215 220 225 224 217 211 209 209 210 215 219 218 216
187 232 232 219 194 185 233 249 230 253 269 262 249 257 274 274 299 282 308 348 3 69 179 170 170 249 297 321 307 251 186 163 185 191 193 190 188 192 196 197 201 202 200 196 191 190 191 187 183 182 179 176 177 172 162 180 218 214 188 174 182 177 176 185 187 190 191 186 185 190 198 205 210 214 217 221 219 215 212 211 211 211 215 217 215 214
226 238 221 202 186 187 218 246 231 229 262 258 226 220 257 272 243 225 283 348 351 357 84 100 61 314 327 339 312 303 333 -0 177 188 194 195 196 198 198 198 201 203 203 197 188 186 182 176 178 180 179 178 179 173 170 202 226 215 184 168 176 174 174 186 188 185 186 187 191 198 205 213 216 218 220 219 217 214 213 211 212 210 210 213 212 211
242 242 208 182 200 199 204 234 217 185 219 265 238 221 229 235 235 240 5 37 17 346 322 86 63 301 320 331 285 302 345 357 33 142 192 204 207 204 197 199 203 204 201 190 179 179 176 174 178 179 182 183 178 167 176 225 229 216 189 171 176 179 178 190 194 190 191 192 196 201 207 213 215 219 220 220 219 216 213 211 211 209 207 210 209 208
238 218 190 191 208 205 207 235 216 170 180 246 242 220 207 208 264 291 34 78 79 288 282 82 109 250 316 319 278 327 20 14 26 39 215 216 217 215 207 205 203 195 192 186 178 178 178 179 181 183 188 189 183 183 213 231 223 215 200 180 178 182 184 192 195 197 199 199 202 206 210 215 218 221 223 223 222 218 217 214 212 209 206 206 205 205
214 189 195 200 206 208 211 237 210 161 158 225 236 210 188 266 286 296 60 99 190 242 320 8 109 138 301 286 300 29 47 28 23 22 9 6 337 215 207 203 184 172 195 191 177 177 182 187 190 192 196 197 199 206 210 209 209 218 219 199 189 188 188 192 195 200 204 204 206 209 213 219 224 228 231 231 225 220 219 214 211 209 205 205 202 202
201 187 203 194 196 208 211 231 206 156 158 230 223 202 210 231 239 282 67 143 195 101 332 316 80 106 275 290 340 43 62 31 12 15 18 27 39 65 106 120 128 144 165 168 165 173 181 186 191 197 201 202 203 199 192 196 203 214 223 218 213 207 197 195 197 200 206 207 208 212 218 222 227 232 234 235 231 224 216 210 209 206 203 203 199 198
234 213 210 183 182 202 210 231 208 163 188 224 188 168 216 330 66 5 118 150 62 69 225 274 270 117 278 317 348 26 55 28 354 9 31 41 49 65 83 97 111 122 126 136 150 160 164 172 185 196 202 201 198 199 209 230 224 216 220 221 222 225 217 208 204 204 207 208 207 212 220 225 229 230 229 229 228 222 212 208 207 203 201 200 197 197
253 250 244 193 195 201 201 217 191 173 185 170 134 132 13 1 27 34 64 107 66 42 241 250 188 112 87 329 343 4 45 90 30 29 39 44 48 58 69 82 97 109 116 125 136 143 145 154 169 185 195 195 196 205 221 240 239 228 229 229 228 230 228 220 214 212 212 212 208 208 215 222 227 226 222 220 220 215 209 207 206 201 198 197 196 196
275 274 280 225 222 205 179 195 187 173 153 110 94 108 39 336 10 20 359 42 82 247 257 244 154 95 100 309 328 359 57 79 70 56 50 51 51 54 64 74 84 94 104 114 124 133 139 147 159 172 187 194 201 214 227 238 237 228 234 246 240 234 232 227 222 218 217 217 212 208 211 216 221 221 218 216 217 216 209 204 202 199 198 197 195 192
300 261 256 247 247 210 141 137 223 143 104 99 86 89 107 307 9 351 309 352 191 241 260 256 83 72 109 98 351 30 72 69 71 72 63 64 64 61 65 71 74 80 87 94 108 122 135 155 171 183 199 211 216 221 223 227 230 227 227 235 234 232 231 229 227 224 221 219 217 216 215 216 219 220 219 218 218 216 208 200 199 198 196 197 194 189
310 292 282 257 263 212 139 123 151 155 111 125 131 122 133 131 102 255 277 337 265 260 276 295 66 90 158 63 3 42 77 73 73 70 59 55 57 57 61 66 67 72 78 85 95 108 134 160 188 214 231 235 223 210 206 208 218 225 221 216 218 223 227 228 231 231 226 223 223 223 223 220 221 222 223 224 222 215 206 199 198 198 195 195 192 187
212 287 272 212 234 193 148 154 161 155 140 160 158 134 145 148 142 196 200 166 225 267 297 317 97 149 147 122 0 62 76 77 78 74 67 59 54 56 57 56 55 53 57 71 79 85 114 147 176 212 224 220 215 210 207 208 217 227 226 222 221 223 226 226 228 231 231 229 225 225 226 225 224 228 230 231 225 213 205 200 198 197 194 194 191 186
181 240 250 228 207 163 156 175 146 117 124 211 143 104 146 177 144 147 170 167 174 210 322 0 99 206 128 121 104 84 76 75 81 80 76 71 64 63 59 52 48 43 37 40 51 61 67 95 146 221 221 215 219 222 223 221 228 240 235 227 226 229 234 234 234 236 234 230 225 223 226 227 228 233 236 239 232 213 201 199 197 195 192 192 190 186
161 246 276 257 212 185 171 172 149 137 158 243 118 138 212 172 133 131 209 147 106 134 279 173 116 137 117 97 51 67 69 62 71 76 76 76 71 66 60 53 50 45 39 37 40 46 43 35 9 312 236 219 225 231 233 231 241 257 241 222 223 232 244 247 246 244 236 229 227 224 225 228 228 230 232 237 236 217 197 195 197 197 195 191 188 187
161 254 290 248 230 226 181 164 154 151 143 117 169 198 196 109 99 109 152 8 67 162 266 232 134 173 150 142 357 61 73 67 69 76 77 73 67 62 58 54 52 50 49 46 43 43 42 39 22 343 329 238 237 242 245 245 254 263 253 233 228 233 244 249 246 242 236 232 231 227 228 229 226 226 225 226 229 216 197 196 198 196 197 193 188 188
154 246 289 256 227 219 164 141 124 303 125 129 166 172 128 122 147 79 140 138 124 184 258 23 84 177 152 192 258 85 92 91 81 75 70 62 56 55 52 49 49 52 53 48 44 44 45 46 41 29 15 344 276 264 262 260 265 268 258 246 241 240 247 253 253 245 239 239 238 236 236 232 225 222 221 220 220 212 201 201 196 190 194 193 187 186
144 135 286 287 298 126 101 98 169 250 322 54 93 68 102 142 165 182 170 156 153 193 216 100 47 291 213 225 192 111 106 104 90 76 70 63 58 56 54 49 47 49 50 46 43 44 48 51 49 46 39 18 345 317 290 278 281 286 274 254 248 247 250 257 259 249 243 246 247 247 241 230 224 220 220 218 213 207 202 199 192 188 190 186 182 184
148 144 232 291 341 48 114 211 187 187 184 153 142 151 197 175 151 171 174 145 144 167 180 145 154 263 255 251 134 120 102 94 90 82 75 69 67 65 62 59 55 51 47 42 39 39 42 47 48 49 50 42 22 352 328 314 309 306 292 261 248 245 245 253 256 249 249 250 246 248 238 222 216 215 216 215 207 201 196 190 187 189 188 182 179 181
178 161 190 270 339 27 225 248 194 190 172 155 164 182 192 190 153 154 243 292 114 140 169 155 164 260 271 127 115 108 84 77 82 85 80 72 71 66 60 60 60 55 45 37 35 33 33 37 38 41 48 52 43 12 358 358 355 347 328 291 261 249 243 247 249 245 245 241 238 242 232 218 210 205 207 208 201 194 189 184 183 186 184 181 181 181
155 118 157 236 263 225 220 58 57 67 102 97 91 92 171 154 131 143 206 256 85 104 134 113 111 263 266 119 106 91 82 79 78 84 84 77 72 66 56 54 56 56 46 34 32 30 28 24 21 24 31 33 26 5 358 3 7 3 349 321 285 264 257 259 255 246 242 238 240 240 229 221 212 202 201 201 195 190 185 181 181 183 182 183 184 182
81 90 165 256 305 303 331 62 54 45 59 72 37 6 31 102 151 150 177 184 113 105 103 88 91 250 236 104 100 94 88 82 72 76 82 80 76 71 63 56 55 55 48 34 28 27 31 23 7 7 6 360 356 346 340 343 347 349 342 326 304 289 290 289 276 259 247 242 242 237 227 222 214 203 199 196 192 190 186 182 183 183 183 184 182 180
49 80 117 87 341 328 324 38 37 29 45 63 356 336 341 15 74 104 132 84 82 159 152 121 142 227 148 103 98 92 84 74 60 63 71 73 72 69 65 61 60 62 57 39 25 20 27 27 16 12 5 355 350 341 336 338 339 335 331 327 318 306 294 282 274 264 252 245 242 234 222 217 212 203 197 193 190 190 186 184 184 182 182 183 179 176
90 90 109 127 168 208 205 189 211 11 46 54 2 344 346 11 47 85 100 71 90 187 116 116 157 156 115 100 93 88 83 72 56 54 58 59 61 60 56 51 50 58 60 47 32 27 26 24 16 13 12 9 3 353 347 350 350 343 333 328 324 318 300 279 269 259 247 240 238 233 221 215 211 202 193 188 188 189 186 182 180 178 182 182 173 166
94 63 69 124 147 179 178 173 192 143 87 64 1 1 357 354 28 85 102 95 154 143 72 124 151 130 116 106 93 81 73 65 51 46 44 41 42 42 43 43 44 53 57 50 42 37 28 21 17 16 15 12 4 356 352 352 352 348 340 330 323 317 304 284 274 262 246 236 233 231 224 216 208 200 192 186 187 186 180 177 177 178 181 176 165 161
97 35 4 74 98 124 122 101 99 102 92 88 59 23 9 5 34 72 88 154 140 112 65 159 144 123 113 103 90 80 71 65 53 45 42 36 33 33 35 40 47 51 51 48 47 43 33 23 18 15 12 7 360 353 351 351 349 349 346 334 320 306 285 262 257 257 247 237 232 227 221 215 207 199 191 188 187 181 174 177 180 180 178 169 163 164
109 41 340 51 71 79 97 99 94 95 90 75 65 41 23 31 48 71 65 347 81 134 163 151 131 112 109 102 89 83 80 75 64 54 51 46 41 40 39 44 50 51 47 44 46 44 38 29 19 12 7 3 358 354 354 356 353 352 350 339 327 313 290 259 246 253 250 240 234 227 217 213 205 196 190 188 187 182 179 183 184 178 171 165 162 164
97 51 329 51 74 63 75 99 99 98 92 68 54 40 36 49 55 65 58 17 36 88 124 120 107 90 93 98 86 81 82 80 73 63 59 55 52 48 48 53 58 57 50 45 45 47 45 36 24 14 6 1 360 357 354 354 353 355 358 352 340 326 312 292 263 260 255 240 231 224 216 210 202 193 189 186 184 181 180 180 176 170 166 162 162 165
59 125 292 49 76 43 35 69 84 92 91 70 45 26 26 45 45 41 39 22 40 76 98 103 99 87 82 90 85 82 83 80 71 62 57 57 60 60 58 62 66 65 60 55 55 55 53 46 32 17 10 5 4 1 355 354 355 357 5 7 358 342 328 318 283 264 254 238 228 219 210 204 197 190 185 180 176 173 173 172 169 167 166 165 166 167
74 132 300 55 87 40 13 56 73 88 84 67 40 16 9 28 48 38 27 18 50 116 115 103 98 107 114 99 87 80 79 77 72 65 59 54 56 61 62 66 71 70 68 69 70 67 59 52 39 24 19 15 10 8 6 3 360 359 5 10 4 349 323 317 294 267 254 238 225 211 199 194 191 185 177 173 171 168 167 168 167 167 169 169 167 167
107 126 125 92 104 165 221 203 316 38 70 54 17 353 347 20 79 62 34 22 22 101 120 106 107 124 126 110 95 85 78 74 70 68 63 55 55 58 61 70 75 74 75 78 77 71 65 58 47 34 30 26 21 19 15 5 359 2 7 2 352 334 312 313 277 250 252 237 219 206 195 186 179 173 166 165 167 166 165 165 164 166 168 165 164 167
97 113 140 138 120 170 203 154 22 16 92 111 323 333 353 62 85 73 50 38 40 64 90 99 107 113 114 108 106 104 92 80 74 74 72 65 58 55 59 72 80 80 80 82 80 76 73 70 62 52 47 43 36 28 16 3 1 8 8 357 349 331 310 296 183 198 217 217 199 187 186 183 171 164 161 162 165 165 162 161 162 165 166 164 166 167
114 108 132 127 105 141 164 117 89 211 207 156 30 -0 36 81 88 82 67 50 60 83 91 92 99 108 110 108 109 106 98 88 77 73 74 76 76 73 70 72 79 83 81 77 77 79 81 80 76 69 62 56 51 41 28 19 14 12 9 12 26 28 21 109 151 164 183 200 184 164 171 178 171 167 169 168 166 164 161 162 164 164 163 164 165 163
135 135 125 103 89 117 138 137 140 173 187 85 38 12 38 74 79 78 64 40 46 90 103 104 113 116 114 114 113 107 100 92 79 68 65 74 83 83 80 77 80 85 85 76 69 73 79 78 74 70 65 61 57 50 43 35 24 17 13 26 52 59 68 93 115 128 146 178 177 158 163 172 172 175 178 170 165 165 167 169 168 163 161 163 160 156
114 125 100 82 78 112 116 88 98 121 150 95 48 24 35 30 347 19 77 54 31 88 116 123 128 126 125 127 124 115 103 90 78 64 57 70 80 82 82 85 88 91 93 89 76 72 76 75 72 69 66 63 59 54 51 48 43 42 38 42 66 76 80 84 85 88 102 129 153 152 154 162 168 172 173 168 166 168 170 171 169 162 161 162 158 154
70 103 130 122 80 90 107 105 117 149 195 182 130 0 359 356 328 316 79 78 35 98 128 133 134 135 138 142 142 134 111 82 73 62 65 81 88 90 90 90 95 100 101 101 98 91 88 83 78 74 70 68 64 59 60 60 57 65 71 72 77 83 84 82 80 80 84 91 112 138 149 157 161 162 165 167 166 164 165 166 163 157 156 157 156 152
55 58 92 103 102 111 121 130 151 177 203 194 275 318 334 335 324 321 70 88 65 126 138 138 139 147 153 159 165 168 150 88 104 92 96 102 100 102 103 100 101 103 103 104 103 98 97 93 88 86 81 74 68 61 62 67 67 74 78 77 79 82 81 81 83 86 88 91 98 113 134 148 151 152 156 159 158 158 160 158 153 151 152 156 158 154
39 26 53 95 129 136 115 115 124 137 148 354 314 313 326 329 322 292 148 159 120 127 136 135 134 151 161 162 161 163 49 131 141 128 119 116 109 108 108 103 101 100 99 99 95 90 93 95 96 95 84 74 69 64 62 67 73 76 75 76 79 78 74 75 83 90 92 94 99 99 105 124 135 140 146 149 148 150 151 147 145 151 155 158 162 162
30 24 63 106 115 100 97 110 105 99 150 321 308 311 326 331 305 180 199 152 119 118 127 127 127 144 154 142 122 99 96 119 129 127 123 118 112 110 109 104 102 100 96 95 92 90 91 92 89 85 78 74 72 68 66 69 79 80 77 78 77 71 66 67 78 91 98 100 104 108 109 111 112 118 129 136 140 144 149 156 169 181 182 178 176 176
22 10 36 71 102 101 102 104 99 112 42 340 316 316 345 353 212 162 121 131 126 120 123 123 121 129 129 117 110 109 112 118 121 119 118 118 114 111 109 107 105 102 99 96 93 91 92 91 89 85 82 79 75 69 67 72 81 83 80 76 71 67 67 68 70 81 93 100 106 115 121 126 126 122 127 136 146 156 165 172 178 183 185 187 188 190
81 69 65 56 51 92 91 90 134 163 3 348 331 317 18 33 145 125 116 122 124 121 118 115 116 123 123 116 114 117 119 120 119 117 115 115 113 110 109 108 105 103 103 101 96 93 91 88 86 84 83 81 80 76 71 71 76 80 79 74 68 64 67 71 72 76 83 90 99 108 115 122 130 136 144 151 158 166 169 171 173 176 178 183 186 185
300 235 146 174 296 90 121 133 133 143 348 356 13 91 91 100 129 129 120 115 117 120 119 116 117 125 127 124 122 123 123 122 121 119 116 112 110 108 106 104 102 100 99 97 95 92 89 85 82 81 81 80 80 79 76 73 74 74 73 70 67 67 69 71 77 81 78 78 86 95 100 108 115 121 126 131 137 145 150 152 155 156 156 157 159 158
47 100 99 88 70 80 94 109 106 78 47 54 80 100 106 111 125 131 125 119 120 126 126 125 126 129 130 129 127 125 125 124 123 122 119 114 111 109 107 104 101 98 96 94 91 87 84 82 78 75 74 73 72 73 73 74 76 77 76 72 66 64 64 66 75 80 73 68 71 77 84 95 103 108 114 118 121 124 127 128 131 132 132 133 135 136
120 108 90 86 106 89 70 67 83 82 74 78 90 104 114 118 123 127 124 121 125 130 130 128 131 132 131 128 124 121 123 125 124 123 121 117 114 112 110 107 103 100 97 94 90 86 83 81 78 74 70 67 63 61 60 62 68 76 82 83 77 72 68 65 69 73 68 63 63 65 73 85 90 96 105 113 118 121 123 127 131 132 132 134 135 137
41 80 84 96 150 119 75 61 72 78 79 84 92 101 110 114 116 118 117 118 122 125 124 123 125 125 122 117 113 112 115 116 116 117 116 113 111 110 109 108 105 103 101 96 92 89 85 82 78 73 69 67 64 61 57 55 56 61 70 79 81 82 81 75 71 69 62 56 53 55 65 78 85 90 99 106 110 114 118 123 132 138 141 145 152 157
98 92 87 78 75 84 95 102 91 83 84 89 94 100 105 108 110 111 112 115 117 117 118 119 119 118 116 112 108 107 108 108 106 108 108 105 104 103 101 100 101 101 100 98 96 92 85 81 77 71 68 66 64 63 60 56 53 51 54 59 63 70 82 86 82 76 67 57 48 43 46 58 71 83 93 101 112 124 127 125 128 137 142 144 153 165
127 111 96 103 100 87 95 115 107 90 82 86 95 102 107 110 113 113 113 115 116 117 118 119 118 116 115 114 111 109 109 105 99 97 98 97 97 97 96 95 96 97 98 98 98 94 86 80 73 66 62 61 60 60 60 60 57 53 50 50 51 53 62 69 74 80 77 68 58 47 39 41 50 57 64 73 90 120 141 143 142 143 141 139 139 143
103 114 118 116 117 110 125 146 132 106 94 101 106 109 114 117 118 117 117 117 118 121 122 119 115 112 108 110 114 115 113 112 105 98 95 94 94 94 92 91 92 93 95 96 97 95 90 83 74 66 64 61 56 56 59 61 60 58 54 50 45 47 54 59 61 61 61 59 57 51 42 39 43 46 48 52 59 71 107 164 182 183 171 158 148 143
111 152 149 106 103 119 135 141 130 114 114 118 118 120 125 126 124 122 122 122 122 124 124 119 116 113 108 106 110 112 112 115 115 108 102 96 93 94 94 91 88 88 90 89 87 86 83 79 73 71 74 72 64 58 60 62 60 56 55 54 49 46 51 59 65 68 63 54 50 48 43 40 43 46 48 51 55 62 70 89 166 195 195 187 179 172
Height
1479 1483 1485 1485 1485 1485 1485 1486 1487 1486 1488 1489 1490 1491 1491 1491 1489 1482 1476 1469 1467 1473 1476 1474 1472 1473 1475 1474 1471 1470 1471 1474 1475 1476 1478 1480 1481 1482 1482 1482 1483 1483 1485 1487 1489 1490 1492 1493 1495 1498 1500 1502 1504 1506 1507 1508 1508 1508 1508 1509 1511 1512 1514 1514 1515 1518 1519 1520 1522 1524 1525 1527 1527 1528 1528 1528 1529 1530 1531 1532 1534 1535 1537 1538 1538 1539
1480 1485 1484 1482 1482 1483 1483 1485 1485 1486 1487 1489 1491 1491 1490 1490 1487 1479 1473 1468 1464 1470 1475 1474 1473 1474 1472 1471 1470 1469 1471 1475 1476 1476 1477 1478 1480 1481 1480 1481 1482 1483 1485 1487 1488 1489 1490 1491 1493 1495 1497 1499 1501 1503 1505 1506 1506 1505 1506 1508 1509 1511 1512 1513 1514 1516 1517 1518 1519 1521 1523 1524 1525 1525 1526 1527 1527 1528 1530 1531 1532 1534 1536 1537 1538 1538
1484 1485 1480 1478 1480 1482 1483 1483 1485 1487 1488 1489 1491 1491 1490 1488 1483 1476 1470 1467 1466 1469 1475 1476 1475 1474 1469 1468 1469 1467 1469 1472 1473 1474 1475 1476 1478 1479 1479 1479 1480 1482 1485 1486 1486 1487 1489 1490 1491 1493 1496 1498 1500 1502 1504 1505 1504 1503 1504 1507 1508 1509 1511 1512 1514 1515 1515 1516 1517 1519 1520 1521 1522 1523 1524 1525 1526 1527 1529 1530 1532 1533 1535 1536 1537 1538
1487 1481 1475 1476 1479 1481 1482 1482 1484 1488 1489 1490 1491 1492 1490 1485 1484 1482 1474 1470 1468 1470 1474 1474 1474 1474 1471 1468 1466 1465 1468 1470 1472 1472 1472 1473 1474 1474 1475 1476 1479 1480 1482 1483 1484 1485 1487 1490 1492 1493 1496 1498 1500 1503 1504 1504 1502 1501 1504 1506 1507 1509 1510 1511 1512 1514 1514 1514 1515 1516 1518 1519 1520 1521 1522 1524 1525 1526 1528 1530 1531 1533 1534 1536 1537 1538
1481 1473 1471 1475 1478 1480 1482 1482 1485 1489 1490 1489 1488 1490 1487 1482 1482 1482 1478 1473 1470 1472 1472 1473 1479 1479 1474 1474 1470 1466 1467 1469 1471 1472 1472 1473 1472 1472 1474 1475 1477 1479 1479 1482 1484 1486 1488 1490 1492 1494 1496 1498 1501 1503 1504 1503 1501 1501 1503 1505 1506 1508 1510 1511 1511 1512 1513 1512 1513 1514 1516 1518 1519 1520 1521 1522 1523 1525 1527 1529 1530 1532 1534 1535 1536 1537
1475 1469 1471 1475 1477 1479 1481 1482 1483 1487 1491 1490 1485 1482 1481 1479 1477 1477 1478 1478 1480 1481 1474 1474 1491 1491 1478 1476 1475 1469 1470 1472 1474 1475 1474 1475 1475 1476 1477 1476 1478 1480 1481 1484 1486 1488 1489 1491 1493 1494 1496 1498 1501 1503 1504 1503 1500 1500 1502 1504 1505 1507 1508 1510 1511 1511 1511 1511 1511 1513 1514 1515 1517 1519 1520 1520 1522 1524 1526 1528 1530 1532 1533 1534 1535 1536
1470 1467 1470 1473 1475 1477 1481 1481 1479 1482 1490 1491 1481 1474 1474 1475 1474 1474 1478 1483 1488 1488 1477 1475 1492 1499 1486 1477 1475 1473 1476 1479 1478 1477 1476 1476 1476 1477 1478 1479 1481 1483 1484 1485 1487 1488 1489 1490 1492 1493 1495 1497 1500 1502 1502 1500 1499 1501 1502 1503 1504 1505 1506 1508 1510 1510 1510 1510 1511 1512 1514 1515 1517 1518 1519 1520 1522 1524 1526 1528 1530 1531 1533 1533 1534 1535
1464 1467 1469 1470 1473 1476 1480 1480 1474 1476 1486 1486 1474 1469 1472 1472 1473 1475 1479 1485 1486 1484 1482 1477 1484 1496 1493 1483 1480 1480 1483 1485 1482 1480 1481 1479 1478 1478 1479 1482 1484 1485 1486 1487 1488 1489 1489 1490 1490 1491 1493 1496 1499 1501 1501 1501 1503 1504 1505 1506 1505 1505 1505 1506 1508 1509 1510 1510 1511 1513 1514 1516 1517 1518 1519 1520 1522 1523 1526 1527 1529 1530 1532 1533 1533 1534
1461 1465 1467 1468 1473 1476 1476 1472 1468 1471 1478 1476 1468 1467 1469 1469 1472 1474 1477 1484 1484 1485 1492 1486 1482 1494 1498 1489 1487 1486 1487 1492 1488 1486 1487 1485 1482 1480 1480 1482 1484 1486 1487 1488 1489 1490 1491 1491 1491 1492 1493 1496 1500 1501 1502 1504 1506 1508 1509 1510 1509 1508 1507 1506 1507 1509 1510 1510 1511 1513 1515 1516 1517 1518 1519 1520 1521 1522 1525 1526 1528 1529 1531 1532 1532 1533
1460 1461 1460 1463 1469 1471 1468 1463 1463 1467 1470 1467 1464 1466 1467 1469 1472 1473 1478 1481 1483 1491 1497 1489 1483 1494 1504 1502 1496 1493 1495 1498 1495 1491 1492 1490 1486 1483 1482 1482 1484 1486 1488 1489 1491 1492 1493 1494 1494 1495 1496 1498 1501 1501 1501 1501 1503 1506 1510 1512 1512 1512 1511 1509 1509 1508 1509 1509 1511 1512 1514 1515 1516 1517 1518 1519 1520 1521 1523 1525 1526 1527 1529 1530 1531 1532
1458 1457 1457 1459 1461 1461 1459 1459 1460 1462 1463 1462 1464 1467 1469 1473 1472 1474 1480 1479 1486 1497 1495 1488 1484 1489 1505 1512 1504 1500 1500 1498 1496 1496 1495 1493 1490 1487 1486 1485 1485 1487 1488 1489 1491 1492 1494 1496 1496 1497 1497 1499 1500 1501 1501 1500 1499 1501 1506 1511 1512 1512 1513 1511 1510 1509 1508 1508 1509 1510 1512 1513 1515 1516 1517 1517 1518 1519 1520 1522 1524 1525 1527 1528 1529 1530
1457 1458 1458 1455 1454 1453 1454 1458 1458 1457 1458 1461 1465 1470 1476 1481 1479 1481 1484 1483 1495 1503 1491 1484 1482 1485 1505 1516 1509 1504 1500 1497 1497 1499 1499 1497 1495 1492 1490 1490 1489 1490 1491 1491 1492 1493 1494 1495 1496 1497 1497 1498 1499 1500 1500 1500 1500 1500 1502 1506 1510 1512 1512 1510 1509 1509 1508 1507 1507 1508 1510 1512 1513 1514 1515 1515 1516 1516 1517 1520 1522 1524 1526 1527 1528 1529
1458 1457 1455 1453 1451 1450 1453 1458 1460 1458 1457 1462 1468 1475 1485 1493 1493 1495 1497 1495 1500 1498 1485 1480 1480 1490 1509 1514 1510 1507 1501 1499 1500 1500 1500 1499 1498 1496 1494 1493 1493 1493 1494 1494 1494 1494 1494 1494 1495 1495 1495 1496 1497 1498 1499 1500 1500 1501 1500 1502 1505 1508 1509 1508 1507 1506 1506 1505 1505 1506 1508 1509 1512 1512 1513 1514 1514 1515 1516 1518 1520 1522 1524 1525 1526 1528
1464 1457 1453 1453 1451 1448 1450 1457 1463 1462 1461 1464 1470 1477 1488 1497 1503 1507 1508 1507 1503 1493 1485 1481 1482 1499 1513 1512 1511 1509 1503 1502 1502 1501 1502 1500 1500 1499 1497 1497 1496 1496 1496 1496 1496 1495 1495 1495 1494 1494 1494 1495 1496 1497 1498 1498 1499 1500 1500 1499 1500 1502 1504 1505 1505 1504 1503 1503 1503 1504 1505 1507 1510 1511 1512 1513 1514 1515 1516 1517 1520 1522 1523 1524 1526 1527
1472 1467 1456 1452 1452 1448 1448 1452 1456 1459 1461 1464 1466 1472 1481 1487 1496 1504 1505 1505 1503 1496 1489 1486 1490 1504 1515 1515 1514 1509 1505 1505 1504 1504 1504 1503 1503 1502 1500 1499 1498 1498 1498 1497 1497 1496 1496 1496 1496 1495 1496 1497 1497 1497 1497 1497 1497 1498 1499 1499 1498 1499 1501 1502 1502 1502 1501 1501 1501 1502 1504 1506 1509 1510 1512 1513 1513 1514 1516 1518 1520 1522 1523 1524 1526 1527
1470 1468 1452 1447 1448 1446 1447 1449 1449 1455 1463 1465 1464 1471 1477 1476 1480 1492 1497 1497 1498 1498 1495 1496 1502 1507 1509 1511 1511 1508 1507 1507 1506 1506 1504 1505 1506 1504 1502 1502 1500 1500 1500 1499 1499 1498 1497 1497 1497 1497 1497 1497 1497 1496 1496 1496 1497 1497 1498 1498 1499 1500 1501 1502 1501 1500 1501 1502 1502 1502 1504 1507 1510 1512 1513 1513 1513 1514 1516 1518 1520 1522 1523 1525 1526 1527
1467 1463 1449 1445 1447 1444 1446 1447 1447 1453 1462 1466 1467 1470 1470 1467 1469 1484 1497 1497 1496 1500 1500 1502 1509 1509 1507 1510 1509 1508 1508 1507 1507 1507 1505 1506 1507 1505 1504 1504 1503 1503 1503 1502 1502 1501 1500 1499 1498 1498 1498 1497 1496 1495 1495 1496 1496 1497 1497 1498 1499 1500 1501 1501 1499 1499 1500 1502 1503 1503 1504 1507 1510 1511 1512 1513 1514 1516 1518 1520 1521 1523 1524 1525 1526 1527
1462 1462 1450 1446 1448 1444 1443 1446 1446 1448 1454 1463 1469 1466 1464 1469 1470 1477 1493 1502 1505 1507 1503 1503 1510 1511 1511 1513 1511 1509 1509 1509 1509 1508 1508 1508 1507 1506 1506 1505 1505 1505 1504 1505 1504 1503 1503 1502 1501 1500 1498 1496 1495 1494 1494 1495 1496 1496 1497 1498 1498 1498 1498 1497 1496 1497 1499 1501 1502 1502 1502 1504 1506 1507 1509 1511 1514 1517 1520 1521 1521 1523 1525 1526 1526 1527
1458 1464 1455 1444 1446 1444 1442 1448 1453 1451 1450 1456 1461 1459 1464 1477 1481 1481 1490 1500 1506 1508 1504 1506 1513 1512 1512 1514 1512 1511 1511 1510 1509 1508 1508 1508 1507 1507 1508 1507 1507 1505 1505 1506 1505 1505 1504 1503 1503 1501 1498 1496 1494 1494 1494 1494 1495 1495 1496 1497 1496 1495 1495 1495 1495 1496 1498 1500 1501 1502 1502 1503 1504 1505 1508 1510 1513 1516 1519 1519 1520 1523 1525 1526 1526 1527
1454 1464 1460 1447 1444 1444 1445 1452 1458 1457 1454 1454 1458 1459 1463 1471 1477 1480 1483 1488 1496 1502 1504 1510 1515 1513 1513 1514 1511 1510 1510 1509 1509 1509 1508 1509 1508 1508 1509 1509 1508 1506 1506 1507 1506 1505 1504 1503 1502 1500 1497 1495 1494 1494 1494 1494 1495 1495 1496 1496 1494 1493 1493 1493 1495 1497 1498 1500 1500 1501 1501 1501 1502 1504 1507 1510 1512 1514 1516 1518 1520 1523 1525 1525 1525 1526
1453 1461 1462 1452 1446 1449 1452 1453 1454 1456 1457 1459 1463 1466 1466 1466 1468 1474 1478 1479 1482 1491 1499 1507 1514 1516 1514 1511 1510 1510 1510 1508 1509 1509 1509 1510 1510 1509 1509 1508 1507 1506 1506 1506 1505 1505 1504 1503 1502 1500 1498 1496 1494 1494 1494 1494 1495 1495 1495 1494 1493 1493 1493 1493 1494 1496 1497 1499 1499 1499 1499 1499 1500 1503 1506 1509 1511 1513 1514 1516 1519 1522 1524 1524 1525 1526
1455 1459 1461 1457 1453 1455 1455 1450 1448 1450 1452 1457 1462 1465 1465 1464 1468 1477 1483 1479 1475 1482 1492 1498 1509 1517 1514 1510 1510 1510 1509 1509 1510 1510 1510 1511 1511 1511 1510 1508 1506 1505 1506 1506 1506 1505 1505 1504 1503 1501 1499 1498 1496 1495 1495 1495 1495 1494 1494 1493 1493 1493 1493 1493 1493 1493 1494 1496 1497 1497 1496 1497 1498 1500 1503 1507 1509 1511 1512 1514 1516 1520 1522 1523 1525 1526
1453 1456 1458 1458 1456 1454 1452 1449 1449 1450 1450 1455 1461 1464 1464 1463 1467 1473 1480 1480 1477 1485 1490 1492 1504 1516 1513 1509 1510 1510 1511 1511 1512 1511 1511 1513 1513 1512 1510 1507 1505 1505 1507 1508 1507 1506 1506 1505 1504 1503 1501 1499 1498 1497 1496 1495 1495 1494 1493 1492 1493 1494 1494 1494 1493 1493 1493 1494 1495 1495 1495 1496 1497 1499 1501 1504 1507 1509 1511 1513 1515 1518 1520 1523 1525 1526
1452 1457 1460 1459 1455 1451 1450 1451 1452 1452 1454 1460 1465 1466 1465 1465 1466 1467 1471 1472 1477 1489 1492 1490 1506 1518 1512 1509 1511 1512 1513 1514 1514 1514 1513 1514 1514 1513 1512 1509 1507 1508 1508 1508 1508 1507 1507 1506 1505 1504 1502 1500 1499 1498 1497 1496 1496 1495 1493 1492 1492 1492 1493 1493 1493 1493 1493 1494 1493 1493 1493 1495 1497 1499 1501 1503 1505 1507 1510 1512 1515 1517 1520 1523 1525 1526
1454 1461 1463 1464 1465 1462 1457 1458 1460 1462 1464 1468 1472 1470 1466 1466 1464 1466 1470 1470 1478 1494 1492 1488 1505 1517 1511 1511 1513 1513 1514 1515 1515 1516 1515 1515 1515 1515 1514 1512 1511 1510 1509 1508 1507 1507 1506 1506 1505 1504 1502 1501 1500 1499 1498 1497 1495 1494 1493 1492 1490 1490 1490 1490 1491 1492 1492 1491 1491 1491 1492 1493 1495 1497 1498 1501 1504 1506 1509 1512 1515 1517 1520 1522 1524 1526
1455 1463 1463 1465 1471 1471 1469 1470 1472 1473 1473 1474 1476 1474 1470 1468 1464 1466 1472 1473 1480 1494 1494 1492 1506 1514 1512 1514 1516 1515 1516 1517 1518 1518 1517 1517 1517 1516 1514 1513 1512 1510 1509 1508 1507 1506 1506 1505 1505 1503 1502 1501 1500 1500 1499 1497 1495 1493 1491 1490 1490 1489 1489 1489 1490 1490 1490 1489 1490 1490 1490 1492 1494 1495 1496 1499 1503 1506 1508 1511 1515 1518 1519 1522 1524 1525
1456 1464 1465 1464 1466 1469 1473 1476 1474 1474 1477 1480 1482 1480 1477 1474 1469 1468 1472 1475 1481 1490 1495 1499 1503 1508 1514 1517 1518 1519 1519 1519 1520 1520 1519 1519 1518 1517 1515 1513 1511 1509 1508 1507 1506 1505 1505 1504 1504 1503 1503 1502 1502 1500 1499 1497 1496 1494 1492 1491 1489 1489 1488 1488 1488 1489 1489 1488 1488 1489 1490 1491 1493 1494 1496 1498 1501 1505 1507 1510 1514 1517 1519 1521 1523 1525
1458 1466 1468 1467 1467 1468 1473 1476 1474 1474 1480 1484 1485 1484 1483 1479 1473 1472 1476 1480 1481 1483 1492 1500 1500 1504 1516 1520 1520 1522 1522 1522 1523 1522 1521 1521 1520 1519 1516 1514 1511 1508 1507 1507 1505 1505 1505 1504 1504 1504 1503 1503 1502 1501 1499 1498 1496 1495 1493 1492 1490 1489 1487 1487 1486 1486 1487 1487 1487 1489 1490 1491 1491 1493 1495 1497 1500 1504 1506 1509 1513 1516 1518 1521 1522 1524
1462 1471 1471 1469 1470 1473 1475 1478 1478 1479 1484 1487 1488 1488 1488 1484 1479 1480 1485 1489 1485 1479 1486 1498 1502 1508 1517 1520 1521 1524 1523 1524 1525 1523 1523 1523 1522 1521 1519 1515 1512 1509 1507 1507 1506 1506 1506 1506 1506 1505 1504 1503 1502 1501 1500 1498 1496 1494 1493 1492 1490 1489 1487 1486 1485 1485 1485 1486 1486 1488 1489 1489 1490 1493 1495 1498 1501 1503 1505 1509 1513 1515 1518 1521 1522 1524
1464 1475 1476 1471 1474 1479 1480 1481 1481 1482 1485 1489 1491 1492 1492 1490 1489 1489 1491 1493 1491 1486 1489 1499 1508 1515 1520 1521 1522 1524 1524 1525 1525 1525 1525 1525 1524 1523 1521 1517 1514 1511 1510 1509 1508 1508 1508 1508 1508 1507 1506 1504 1503 1502 1500 1498 1497 1495 1493 1492 1490 1488 1486 1485 1484 1484 1483 1484 1485 1486 1487 1488 1490 1492 1495 1498 1501 1503 1505 1509 1512 1515 1517 1520 1522 1524
1464 1476 1478 1472 1477 1486 1486 1485 1486 1485 1487 1492 1495 1496 1493 1491 1492 1494 1495 1496 1496 1498 1501 1506 1512 1520 1524 1522 1523 1525 1526 1525 1525 1526 1526 1526 1525 1524 1522 1519 1517 1515 1514 1513 1511 1511 1510 1510 1510 1508 1507 1505 1504 1503 1501 1500 1498 1496 1495 1493 1490 1488 1486 1485 1484 1483 1483 1483 1483 1484 1485 1486 1489 1492 1495 1498 1500 1502 1505 1509 1512 1514 1516 1519 1521 1523
1465 1476 1479 1474 1480 1489 1490 1491 1492 1488 1486 1492 1499 1501 1498 1495 1495 1498 1500 1500 1500 1502 1505 1508 1513 1521 1525 1524 1524 1526 1527 1527 1528 1528 1527 1526 1525 1524 1522 1521 1520 1519 1518 1516 1514 1513 1512 1511 1511 1510 1509 1507 1505 1504 1502 1501 1499 1497 1496 1494 1491 1489 1487 1485 1484 1484 1483 1483 1483 1483 1484 1485 1487 1491 1494 1498 1500 1502 1505 1508 1511 1513 1516 1518 1520 1523
1466 1474 1477 1475 1480 1490 1490 1491 1492 1486 1483 1492 1502 1505 1504 1501 1501 1502 1504 1504 1504 1503 1505 1509 1515 1521 1524 1524 1525 1528 1529 1529 1530 1529 1528 1527 1526 1525 1524 1523 1522 1521 1519 1517 1516 1515 1514 1513 1512 1511 1510 1509 1507 1505 1503 1502 1500 1498 1497 1495 1493 1491 1489 1487 1485 1485 1485 1485 1484 1484 1484 1485 1487 1490 1494 1498 1500 1502 1504 1507 1510 1513 1515 1518 1520 1522
1467 1470 1474 1475 1481 1490 1492 1492 1493 1490 1489 1498 1505 1506 1505 1504 1502 1505 1509 1510 1509 1508 1509 1513 1517 1521 1523 1524 1526 1529 1530 1531 1531 1529 1528 1528 1528 1527 1526 1524 1523 1522 1520 1519 1518 1516 1515 1515 1514 1513 1512 1511 1509 1507 1505 1503 1501 1500 1499 1497 1495 1493 1491 1489 1487 1486 1486 1485 1485 1484 1484 1486 1488 1491 1494 1497 1500 1503 1505 1508 1510 1513 1515 1518 1520 1522
1468 1470 1473 1476 1480 1489 1495 1495 1495 1496 1499 1504 1506 1505 1505 1505 1504 1507 1512 1513 1513 1513 1515 1518 1520 1521 1523 1525 1527 1528 1529 1530 1530 1529 1529 1529 1529 1528 1527 1525 1524 1522 1521 1520 1519 1518 1517 1516 1515 1515 1514 1512 1511 1509 1507 1505 1503 1502 1500 1498 1496 1494 1493 1491 1489 1488 1487 1487 1486 1486 1486 1488 1490 1491 1494 1497 1500 1503 1507 1509 1511 1513 1515 1518 1520 1521
1467 1469 1472 1477 1482 1489 1496 1496 1496 1502 1507 1507 1507 1507 1507 1507 1507 1508 1513 1516 1516 1516 1518 1520 1523 1523 1524 1526 1528 1528 1529 1530 1530 1531 1531 1531 1530 1528 1527 1526 1525 1523 1522 1522 1521 1520 1519 1518 1517 1516 1515 1514 1513 1511 1509 1507 1506 1504 1502 1500 1498 1497 1495 1493 1491 1490 1490 1489 1489 1488 1488 1489 1491 1493 1495 1498 1500 1503 1507 1509 1512 1514 1515 1517 1519 1521
1467 1469 1473 1479 1485 1491 1498 1502 1504 1509 1510 1508 1509 1511 1510 1511 1511 1510 1513 1518 1518 1517 1518 1521 1523 1524 1525 1526 1527 1528 1529 1530 1531 1533 1533 1532 1530 1529 1528 1527 1527 1525 1524 1523 1523 1522 1520 1519 1519 1518 1517 1516 1515 1513 1512 1510 1509 1506 1504 1502 1501 1499 1497 1495 1494 1493 1492 1491 1491 1490 1490 1491 1493 1494 1496 1498 1500 1503 1507 1509 1512 1514 1515 1517 1519 1521
1468 1470 1471 1477 1487 1493 1499 1506 1510 1509 1508 1509 1511 1512 1511 1512 1512 1509 1512 1518 1519 1517 1519 1520 1522 1523 1525 1526 1527 1527 1528 1530 1533 1535 1534 1533 1531 1530 1530 1530 1529 1527 1526 1525 1524 1523 1522 1521 1520 1519 1519 1518 1516 1515 1514 1513 1511 1509 1506 1504 1503 1501 1499 1498 1496 1496 1495 1494 1494 1494 1493 1493 1495 1496 1497 1499 1501 1504 1507 1509 1511 1514 1516 1517 1519 1521
1470 1473 1473 1476 1487 1492 1494 1500 1505 1505 1507 1511 1513 1512 1511 1511 1511 1509 1511 1517 1520 1519 1519 1520 1522 1523 1524 1525 1526 1527 1528 1531 1535 1536 1534 1533 1532 1531 1531 1531 1530 1529 1528 1527 1526 1525 1523 1523 1522 1521 1520 1519 1518 1517 1516 1514 1513 1511 1508 1506 1505 1503 1501 1500 1499 1498 1497 1497 1497 1497 1497 1497 1497 1498 1499 1500 1502 1505 1508 1509 1511 1514 1516 1517 1520 1522
1473 1476 1476 1478 1486 1490 1492 1499 1506 1508 1510 1513 1513 1512 1511 1510 1511 1510 1510 1515 1519 1520 1519 1520 1522 1523 1524 1525 1526 1526 1527 1530 1534 1535 1534 1534 1533 1532 1532 1532 1531 1530 1529 1528 1527 1526 1525 1524 1524 1523 1521 1520 1519 1518 1518 1516 1514 1512 1510 1509 1507 1505 1504 1504 1503 1501 1501 1500 1499 1499 1500 1501 1501 1501 1501 1502 1504 1506 1509 1511 1513 1515 1517 1519 1522 1524
1479 1481 1481 1484 1489 1492 1496 1504 1510 1511 1512 1513 1512 1512 1511 1510 1511 1510 1511 1515 1519 1520 1520 1521 1522 1523 1524 1524 1525 1526 1528 1530 1532 1534 1534 1534 1534 1533 1533 1533 1532 1531 1530 1529 1528 1527 1526 1526 1525 1524 1522 1521 1521 1520 1519 1517 1515 1513 1512 1511 1509 1508 1508 1508 1507 1505 1503 1502 1501 1502 1503 1504 1505 1505 1504 1506 1507 1509 1511 1513 1516 1518 1520 1522 1523 1524
1485 1487 1486 1488 1492 1495 1499 1506 1509 1510 1513 1513 1512 1511 1510 1510 1510 1512 1515 1518 1519 1519 1521 1521 1522 1524 1525 1525 1526 1527 1529 1531 1533 1534 1535 1535 1535 1534 1534 1533 1533 1532 1531 1530 1530 1529 1528 1527 1526 1525 1524 1523 1522 1521 1520 1519 1516 1514 1514 1512 1511 1512 1512 1511 1510 1508 1506 1505 1504 1504 1505 1506 1508 1509 1509 1509 1510 1512 1513 1515 1517 1519 1521 1522 1523 1524
1492 1492 1492 1496 1497 1496 1499 1504 1504 1506 1511 1512 1510 1510 1511 1512 1513 1514 1517 1519 1519 1520 1522 1523 1524 1525 1525 1526 1528 1529 1531 1533 1534 1535 1535 1536 1536 1535 1535 1534 1534 1533 1533 1532 1531 1531 1530 1529 1528 1527 1526 1525 1524 1523 1522 1520 1518 1516 1515 1514 1514 1515 1515 1514 1513 1511 1510 1509 1508 1507 1508 1509 1509 1510 1511 1512 1513 1513 1515 1516 1518 1520 1521 1522 1523 1524
1496 1494 1495 1501 1502 1497 1499 1504 1506 1509 1513 1511 1509 1510 1512 1513 1515 1515 1517 1519 1521 1522 1523 1524 1526 1527 1526 1527 1529 1531 1533 1534 1535 1536 1536 1536 1536 1536 1536 1535 1535 1534 1534 1533 1533 1532 1532 1531 1530 1529 1528 1527 1525 1524 1523 1522 1521 1519 1517 1517 1518 1518 1517 1516 1515 1514 1513 1512 1511 1511 1512 1512 1512 1512 1513 1514 1515 1515 1516 1517 1518 1520 1521 1522 1523 1523
1497 1495 1493 1500 1505 1503 1505 1511 1513 1514 1514 1511 1510 1511 1513 1515 1517 1517 1517 1519 1522 1523 1524 1524 1527 1528 1528 1529 1530 1532 1534 1535 1536 1537 1537 1537 1537 1537 1536 1536 1536 1535 1535 1534 1534 1534 1533 1532 1532 1531 1530 1529 1527 1526 1525 1524 1523 1521 1520 1520 1521 1520 1519 1518 1517 1516 1516 1515 1515 1515 1515 1515 1515 1515 1516 1517 1517 1518 1518 1519 1520 1520 1521 1523 1523 1524
1498 1496 1495 1500 1506 1506 1510 1515 1516 1515 1514 1513 1512 1513 1514 1516 1518 1519 1519 1521 1523 1524 1525 1526 1527 1529 1530 1531 1532 1533 1535 1536 1537 1538 1538 1538 1538 1538 1537 1537 1537 1536 1536 1535 1535 1535 1535 1534 1534 1533 1532 1530 1529 1528 1527 1526 1525 1524 1523 1523 1523 1522 1521 1521 1520 1519 1519 1519 1519 1519 1519 1518 1518 1518 1519 1519 1520 1520 1520 1521 1522 1522 1523 1524 1525 1525
1497 1496 1497 1501 1505 1506 1512 1518 1517 1516 1517 1516 1516 1517 1517 1518 1520 1521 1522 1523 1524 1526 1527 1528 1529 1531 1532 1533 1533 1534 1536 1537 1538 1539 1539 1539 1538 1538 1538 1538 1538 1538 1538 1537 1537 1537 1537 1536 1536 1535 1534 1532 1531 1530 1529 1528 1527 1526 1526 1525 1524 1524 1523 1522 1521 1521 1522 1522 1522 1522 1522 1521 1521 1521 1522 1522 1522 1522 1523 1523 1524 1525 1525 1526 1527 1527
1498 1498 1500 1504 1506 1508 1514 1519 1519 1518 1518 1518 1519 1520 1520 1520 1522 1523 1524 1526 1527 1528 1529 1530 1531 1532 1533 1535 1535 1536 1537 1538 1539 1539 1539 1539 1539 1539 1539 1539 1539 1539 1539 1539 1539 1539 1539 1538 1538 1537 1536 1534 1533 1532 1531 1530 1529 1529 1528 1527 1526 1526 1525 1523 1523 1523 1524 1524 1525 1525 1525 1524 1524 1524 1524 1524 1525 1525 1525 1526 1526 1527 1527 1528 1529 1529
1497 1500 1502 1505 1509 1513 1517 1519 1519 1519 1521 1522 1523 1523 1522 1522 1524 1526 1527 1529 1529 1530 1531 1532 1533 1534 1535 1536 1537 1538 1539 1540 1540 1540 1540 1540 1540 1540 1540 1541 1541 1541 1541 1541 1541 1540 1540 1540 1539 1538 1538 1537 1535 1534 1533 1532 1532 1531 1530 1529 1528 1528 1526 1525 1525 1525 1525 1526 1526 1527 1527 1527 1526 1526 1526 1526 1526 1527 1527 1527 1528 1528 1529 1529 1530 1530
1499 1504 1505 1505 1509 1514 1517 1518 1518 1519 1522 1525 1526 1525 1525 1526 1527 1528 1530 1531 1531 1532 1533 1533 1535 1536 1537 1537 1538 1539 1539 1540 1541 1542 1542 1542 1542 1542 1542 1542 1542 1542 1542 1543 1542 1542 1542 1541 1541 1540 1539 1538 1537 1536 1535 1535 1534 1533 1533 1532 1531 1530 1529 1528 1527 1527 1527 1527 1527 1528 1529 1528 1527 1527 1527 1527 1527 1528 1528 1528 1529 1529 1530 1530 1530 1531
1501 1505 1505 1504 1507 1513 1516 1517 1518 1519 1522 1526 1527 1527 1528 1529 1529 1530 1531 1532 1533 1534 1535 1535 1536 1537 1538 1539 1540 1540 1540 1541 1542 1542 1543 1543 1544 1544 1544 1544 1544 1544 1544 1544 1544 1544 1543 1543 1542 1542 1541 1540 1539 1538 1537 1537 1536 1535 1535 1534 1533 1532 1531 1530 1530 1530 1530 1530 1529 1530 1530 1530 1529 1529 1529 1529 1529 1529 1529 1529 1529 1529 1530 1530 1530 1531